Bei Facebook empfehlenBei Twitter postenGoogle plusPinterest

Das Wetter im Erzgebirge am 19.01.2015

Wetter und Klima am 19.01.2015 Holzhau im Erzgebirge (630m ü.NN)
Letzte gemessene Temperatur und Uhrzeit der Messung23:45:00 Uhr-0.90 °C
Temperatur (Maximum / Höchstwert) und Uhrzeit der Messung13:30:00 Uhr0.40 °C
Temperatur (Minimum / Tiefstwert) und Uhrzeit der Messung02:30:00-4.40 °C
Errechneter Absolutwert der Temperaturschwankungen zwischen Tmin und Tmax des Tages4.80 K
Errechnete Tagesmitteltemperatur-1.25208 °C
Gesamt - Niederschlag des Tages (in flüssiger Form)0.51 Liter / m²
Luftdruck (Maximum / Höchstwert) und Zeitpunkt der Messung00:00:00 Uhr1012.00 hPa
Luftdruck (Minimum / Tiefstwert) und Zeitpunkt der Messung23:15:00 Uhr1007.80 hPa
Errechneter Absolutwert der Luftdruckschwankungen des Tages4.20 hPa
Höchste gemessene Windgeschwindigkeit und Uhrzeit der Messung23:45:00 Uhr0.00 km/h
Errechnete Windhäufigkeit in Relation zu den Messwerten des Tages0.00000 %
Niedrigste Windkühle (Windchill) und Zeitpunkt der Messung02:30:00 Uhr-4.40 °C
Taupunkt (Maximum / Höchstwert) und Uhrzeit der Messung13:15:00 Uhr-1.00 °C
Taupunkt (Minimum / Tiefstwert) und Uhrzeit der Messung02:30:00-5.60 °C
Anzahl der automatisch eingelesenen Messwerte 96

Detaillierte Wetter- und Klima- Messwerte für den 19.01.2015 in Holzhau im Erzgebirge (630m ü.NN)
ZeitTemperaturLuftdruckRel. LuftfeuchteWindWindrichtungWindchillTaupunktNiederschlag l/m²
23:45:00-0.90 °C1007.90 hPa90.00 %-2.50 °C0.51
23:30:00-1.00 °C1007.90 hPa90.00 %-2.60 °C0.51
23:15:00-1.00 °C1007.80 hPa90.00 %-2.60 °C0.51
23:00:00-1.00 °C1008.10 hPa90.00 %-2.60 °C0.51
22:45:00-0.90 °C1008.00 hPa90.00 %-2.50 °C0.51
22:30:00-0.90 °C1008.20 hPa90.00 %-2.50 °C0.51
22:15:00-0.90 °C1008.10 hPa90.00 %-2.50 °C0.51
22:00:00-1.00 °C1008.30 hPa90.00 %-2.60 °C0.51
21:45:00-1.00 °C1008.40 hPa90.00 %-2.60 °C0.51
21:30:00-0.80 °C1008.20 hPa89.00 %-2.60 °C0.51
21:15:00-0.80 °C1008.30 hPa89.00 %-2.60 °C0.51
21:00:00-0.70 °C1008.10 hPa89.00 %-2.50 °C0.51
20:45:00-0.60 °C1008.20 hPa89.00 %-2.40 °C0.51
20:30:00-0.60 °C1008.40 hPa89.00 %-2.40 °C0.51
20:15:00-0.60 °C1008.30 hPa90.00 %-2.20 °C0.51
20:00:00-0.60 °C1008.40 hPa90.00 %-2.20 °C0.51
19:45:00-0.60 °C1008.30 hPa90.00 %-2.20 °C0.51
19:30:00-0.60 °C1008.20 hPa90.00 %-2.20 °C0.51
19:15:00-0.60 °C1008.20 hPa90.00 %-2.20 °C0.51
19:00:00-0.60 °C1008.20 hPa90.00 %-2.20 °C0.51
18:45:00-0.60 °C1008.30 hPa89.00 %-2.40 °C0.51
18:30:00-0.60 °C1008.40 hPa89.00 %-2.40 °C0.51
18:15:00-0.60 °C1008.40 hPa89.00 %-2.40 °C0.51
18:00:00-0.60 °C1008.40 hPa89.00 %-2.40 °C0.51
17:45:00-0.60 °C1008.50 hPa89.00 %-2.40 °C0.51
17:30:00-0.60 °C1008.50 hPa88.00 %-2.50 °C0.51
17:15:00-0.60 °C1008.50 hPa88.00 %-2.50 °C0.51
17:00:00-0.60 °C1008.50 hPa88.00 %-2.50 °C0.51
16:45:00-0.50 °C1008.40 hPa88.00 %-2.40 °C0.51
16:30:00-0.50 °C1008.50 hPa88.00 %-2.40 °C0.51
16:15:00-0.40 °C1008.50 hPa88.00 %-2.30 °C0.51
16:00:00-0.40 °C1008.40 hPa88.00 %-2.30 °C0.51
15:45:00-0.20 °C1008.50 hPa88.00 %-2.10 °C0.51
15:30:00-0.20 °C1008.50 hPa88.00 %-2.10 °C0.51
15:15:00-0.20 °C1008.30 hPa88.00 %-2.10 °C0.51
15:00:00-0.20 °C1008.40 hPa88.00 %-2.10 °C0.51
14:45:00-0.20 °C1008.50 hPa89.00 %-2.00 °C0.51
14:30:00-0.20 °C1008.80 hPa88.00 %-2.10 °C0.51
14:15:00-0.10 °C1008.60 hPa89.00 %-1.90 °C0.51
14:00:000.10 °C1008.80 hPa89.00 %-1.50 °C0.51
13:45:000.20 °C1008.90 hPa89.00 %-1.40 °C0.51
13:30:000.40 °C1009.20 hPa89.00 %-1.20 °C0.51
13:15:000.40 °C1009.30 hPa90.00 %-1.00 °C0.51
13:00:00-0.10 °C1009.50 hPa90.00 %-1.70 °C0.51
12:45:00-0.20 °C1009.80 hPa90.00 %-1.80 °C0.51
12:30:00-0.20 °C1010.00 hPa90.00 %-1.80 °C0.51
12:15:00-0.10 °C1010.10 hPa90.00 %-1.70 °C0.51
12:00:00-0.20 °C1010.10 hPa90.00 %-1.80 °C0.51
11:45:00-0.20 °C1010.20 hPa91.00 %-1.60 °C0.51
11:30:00-0.30 °C1010.10 hPa91.00 %-1.70 °C0.51
11:15:00-0.20 °C1010.30 hPa91.00 %-1.60 °C0.51
11:00:00-0.20 °C1010.30 hPa92.00 %-1.50 °C0.51
10:45:00-0.40 °C1010.30 hPa92.00 %-1.70 °C0.51
10:30:00-0.50 °C1010.50 hPa92.00 %-1.80 °C0.51
10:15:00-0.50 °C1010.60 hPa92.00 %-1.80 °C0.51
10:00:00-0.50 °C1010.60 hPa92.00 %-1.80 °C0.51
09:45:00-0.60 °C1010.50 hPa92.00 %-1.90 °C0.51
09:30:00-0.70 °C1010.60 hPa92.00 %-2.00 °C0.51
09:15:00-0.80 °C1010.50 hPa93.00 %-1.90 °C0.51
09:00:00-0.90 °C1010.70 hPa93.00 %-2.00 °C0.51
08:45:00-1.00 °C1010.60 hPa93.00 %-2.10 °C0.51
08:30:00-1.10 °C1010.50 hPa93.00 %-2.20 °C0.51
08:15:00-1.10 °C1010.40 hPa93.00 %-2.20 °C0.51
08:00:00-1.10 °C1010.40 hPa93.00 %-2.20 °C0.51
07:45:00-1.10 °C1010.40 hPa93.00 %-2.20 °C0.51
07:30:00-1.10 °C1010.50 hPa93.00 %-2.20 °C0.51
07:15:00-1.10 °C1010.60 hPa93.00 %-2.20 °C 
07:00:00-1.10 °C1010.50 hPa93.00 %-2.20 °C 
06:45:00-1.10 °C1010.60 hPa93.00 %-2.20 °C 
06:30:00-1.10 °C1010.70 hPa93.00 %-2.20 °C 
06:15:00-1.10 °C1010.80 hPa93.00 %-2.20 °C 
06:00:00-1.20 °C1010.80 hPa93.00 %-2.30 °C 
05:45:00-1.30 °C1010.90 hPa93.00 %-2.40 °C 
05:30:00-1.50 °C1010.90 hPa93.00 %-2.60 °C 
05:15:00-1.60 °C1011.00 hPa93.00 %-2.70 °C 
05:00:00-1.80 °C1010.70 hPa93.00 %-2.90 °C 
04:45:00-2.10 °C1010.90 hPa93.00 %-3.20 °C 
04:30:00-2.60 °C1011.00 hPa93.00 %-3.70 °C 
04:15:00-2.70 °C1011.10 hPa93.00 %-3.80 °C 
04:00:00-2.90 °C1011.20 hPa93.00 %-4.00 °C 
03:45:00-3.20 °C1011.30 hPa93.00 %-4.30 °C 
03:30:00-3.60 °C1011.30 hPa93.00 %-4.70 °C 
03:15:00-3.70 °C1011.10 hPa92.00 %-4.90 °C 
03:00:00-3.60 °C1011.40 hPa92.00 %-4.80 °C 
02:45:00-4.10 °C1011.20 hPa92.00 %-5.30 °C 
02:30:00-4.40 °C1011.40 hPa92.00 %-5.60 °C 
02:15:00-4.10 °C1011.50 hPa92.00 %-5.30 °C 
02:00:00-3.70 °C1011.50 hPa92.00 %-4.90 °C 
01:45:00-3.80 °C1011.40 hPa92.00 %-5.00 °C 
01:30:00-3.80 °C1011.50 hPa92.00 %-5.00 °C 
01:15:00-3.90 °C1011.60 hPa92.00 %-5.10 °C 
01:00:00-3.90 °C1011.50 hPa92.00 %-5.10 °C 
00:45:00-4.10 °C1011.60 hPa92.00 %-5.30 °C 
00:30:00-3.90 °C1011.60 hPa92.00 %-5.10 °C 
00:15:00-3.90 °C1011.80 hPa92.00 %-5.10 °C 
00:00:00-3.70 °C1012.00 hPa92.00 %-4.90 °C 

Permanenter Link zu dieser Seite: Wetter im Erzgebirge am 19.01.2015
Performance-Info: Die Erstellung der Seite / Statistik(en) / Tabelle(n) erforderte 5 Datenbankserver-Abfrage(n) und dauerte 102 Millisekunden. (Dieser Messwert ist von der Gesamt-Auslastung des Servers abhängig.)
Erzgebirge - Wetter | Erzgebirge - Wetter (Mobilgeräte) | Komplette Klimadatenbank